{"data":{"norad_id":49062,"intl_designator":"2021-071A","name":"ZHONGXING-2E","alt_names":[],"object_type":"PAYLOAD","status":"ACTIVE","operator":null,"country":"PRC","launch_date":"2021-08-05","launch_site_code":"XICLF","launch_vehicle":null,"mission":null,"orbit_class":"UNKNOWN","rcs_meters":null,"size_class":null,"mass_kg":null,"dimensions":null,"purposes":["comms"],"wikipedia_slug":null,"has_3d_model":false,"image_url":null,"decayed_at":null,"tle_current":{"epoch":"2026-05-24T23:04:39.070848Z","epoch_age_seconds":88546,"freshness":"FRESH","line1":"1 49062U 21071A   26144.96156332  .00000000  00000+0  00000+0 0  9992","line2":"2 49062   0.0106 320.3052 0002038 172.0606 194.3947  1.00267123 17805","mean_motion":1.00267123,"eccentricity":0.0002038,"inclination_deg":0.0106,"raan_deg":320.3052,"arg_perigee_deg":172.0606,"mean_anomaly_deg":194.3947,"bstar":0,"rev_number":1780,"period_min":1436.1636765024,"perigee_km":35779.308500929,"apogee_km":35796.495378401,"semimajor_km":42166.038939665,"source":"CELESTRAK","updated_at":"2026-05-25T13:38:14.101266Z"}}}